History for Miami, FL

Thursday, January 31, 2013 — View Current Conditions

Jump to Data:

Date:
Airport Code:
Recently Viewed Airport Codes: KMIA
Daily Summary
  Actual Average Record
Temperature
Mean Temperature 70°F 69°F  
Max Temperature 76°F 77°F 86°F (1991)
Min Temperature 63°F 61°F 35°F (1966)
Degree Days
Heating Degree Days 0 1  
Month to date heating degree days 4 56  
Since 1 July heating degree days 20 90  
Cooling Degree Days 5 5  
Month to date cooling degree days 269 151  
Year to date cooling degree days 269 151  
Growing Degree Days 20 (Base 50)    
Moisture
Dew Point 61°F    
Average Humidity 76    
Maximum Humidity 93    
Minimum Humidity 58    
Precipitation
Precipitation 0.00 in 0.06 in 1.19 in (1953)
Month to date precipitation 0.54 1.62  
Year to date precipitation 0.54 1.62  
Snow
Snow 0.00 in in in ()
Month to date snowfall 0.0  
Since 1 July snowfall 0.0  
Snow Depth 0.00 in    
Sea Level Pressure
Sea Level Pressure 30.08 in    
Wind
Wind Speed 6 mph (NW)    
Max Wind Speed 15 mph    
Max Gust Speed 23 mph    
Visibility 10 miles    
Events      
T = Trace of Precipitation, MM = Missing Value Source: NWS Daily Summary

Show full METARS

(help) - Comma Delimited File

Hourly Observations

Time(EST) Temperature Dew Point Humidity Sea Level Pressure Visibility Wind Direction Wind Speed Gust Speed Precipitation Events Conditions
12:53 AM 72.0°F 69.1°F 91% 30.01 in 10.0 miles South 4.6 mph - N/A   Partly Cloudy
1:53 AM 71.1°F 69.1°F 93% 30.01 in 10.0 miles South 4.6 mph - N/A   Clear
2:53 AM 71.1°F 69.1°F 93% 29.99 in 10.0 miles South 4.6 mph - N/A   Clear
3:53 AM 72.0°F 70.0°F 93% 29.98 in 10.0 miles South 5.8 mph - N/A   Clear
4:53 AM 72.0°F 69.1°F 91% 29.99 in 7.0 miles South 4.6 mph - N/A   Partly Cloudy
5:53 AM 71.1°F 69.1°F 93% 29.99 in 8.0 miles South 4.6 mph - N/A   Partly Cloudy
6:53 AM 72.0°F 70.0°F 93% 30.01 in 8.0 miles South 4.6 mph - N/A   Partly Cloudy
7:53 AM 73.9°F 71.1°F 91% 30.03 in 10.0 miles South 6.9 mph - N/A   Mostly Cloudy
8:53 AM 75.0°F 71.1°F 87% 30.07 in 10.0 miles SW 9.2 mph - N/A   Mostly Cloudy
9:11 AM 73.4°F 68.0°F 83% 30.09 in 10.0 miles NW 12.7 mph 20.7 mph N/A   Overcast
9:17 AM 66.2°F 62.6°F 88% 30.10 in 10.0 miles NW 11.5 mph 23.0 mph N/A   Overcast
9:28 AM 66.2°F 60.8°F 83% 30.10 in 10.0 miles NNW 12.7 mph 20.7 mph N/A   Overcast
9:53 AM 66.0°F 62.1°F 87% 30.11 in 10.0 miles NNW 8.1 mph - N/A   Overcast
10:27 AM 66.2°F 62.6°F 88% 30.11 in 10.0 miles NNW 8.1 mph - N/A   Overcast
10:37 AM 66.2°F 60.8°F 83% 30.12 in 10.0 miles NW 11.5 mph 19.6 mph N/A   Overcast
10:53 AM 66.9°F 61.0°F 81% 30.13 in 10.0 miles NW 10.4 mph 18.4 mph N/A   Overcast
11:49 AM 69.8°F 60.8°F 73% 30.12 in 10.0 miles North 8.1 mph - N/A   Mostly Cloudy
11:53 AM 70.0°F 61.0°F 73% 30.12 in 10.0 miles NNW 8.1 mph - N/A   Mostly Cloudy
12:53 PM 72.0°F 61.0°F 68% 30.09 in 10.0 miles NNW 9.2 mph - N/A   Mostly Cloudy
1:53 PM 73.0°F 61.0°F 66% 30.07 in 10.0 miles NNW 9.2 mph - N/A   Mostly Cloudy
2:53 PM 70.0°F 60.1°F 71% 30.06 in 10.0 miles Calm Calm - N/A   Mostly Cloudy
3:53 PM 68.0°F 57.9°F 70% 30.09 in 10.0 miles Variable 5.8 mph - N/A   Overcast
4:53 PM 66.0°F 55.9°F 70% 30.10 in 10.0 miles NNW 9.2 mph - N/A   Mostly Cloudy
5:53 PM 66.0°F 55.0°F 68% 30.11 in 10.0 miles NNW 6.9 mph - N/A   Mostly Cloudy
6:53 PM 66.2°F 51.8°F 60% 30.13 in 10.0 miles North 6.9 mph - N/A   Mostly Cloudy
7:53 PM 66.9°F 53.1°F 61% 30.15 in 10.0 miles NNW 3.5 mph - N/A   Mostly Cloudy
8:53 PM 66.0°F 53.1°F 63% 30.16 in 10.0 miles Variable 3.5 mph - N/A   Scattered Clouds
9:53 PM 66.0°F 52.0°F 60% 30.18 in 10.0 miles North 5.8 mph - N/A   Partly Cloudy
10:53 PM 64.9°F 51.1°F 61% 30.18 in 10.0 miles NW 9.2 mph - N/A   Mostly Cloudy
11:53 PM 63.0°F 42.1°F 46% 30.18 in 10.0 miles North 8.1 mph - N/A   Mostly Cloudy